Flag for Germany Weather past 2 weeks in Alsfeld, Hesse, Germany

Now
65 °F

Drizzle. Low clouds.


Feels Like: 65 °F
Forecast: 56 / 75 °F
Wind: 5 mph from Northwest

Location: Fritzlar

Current Time: Jul 30, 2014 at 11:57:27 AM

Latest Report: Jul 30, 2014 at 11:00 AM


Visibility: 4 mi

Pressure: 29.83 "Hg

Humidity: 91%

Dew point: 62 °F

Location of AlsfeldLocation

Historic Weather in Alsfeld — Graph

°F

Alsfeld temperature yesterday

Maximum temperature yesterday: 77 °F (at 4:00 PM)
Minimum temperature yesterday: 65 °F (at 6:00 AM)
Average temperature yesterday: 69 °F

Past Weeks' High & Low Weather Summary

 TemperatureHumidityPressure
High88 °F (Jul 19, 5:00 PM)98% (Jul 26, 6:00 AM)30.20 "Hg (Jul 26, 6:00 AM)
Low56 °F (Jul 17, 6:00 AM)34% (Jul 18, 5:00 PM)29.74 "Hg (Jul 29, 4:00 PM)
Average70 °F73%29.96 "Hg
* Reported Jul 15 11:00 AM — Jul 30 11:00 AM, Alsfeld, Weather by CustomWeather, © 2014

Note: Actual official high and low records may vary slightly from our data, if they occured in-between our weather recording intervals... More about our weather records

Advertising

Alsfeld weather history for previous 24 hours

 ConditionsComfort  
Time TempWeatherWind HumidityBarometerVisibility
11:00 AM
Jul 30
65 °FDrizzle. Low clouds.5 mph91%29.83 "Hg4 mi
10:00 AM66 °FLow clouds.3 mph90%29.81 "Hg7 mi
9:00 AM66 °FLight rain. Overcast.3 mph90%29.80 "Hg4 mi
8:00 AM66 °FRain. Overcast.2 mph95%29.78 "Hg3 mi
7:00 AM65 °FLight rain. Overcast.2 mph94%29.78 "Hg3 mi
6:00 AM66 °FLight rain. Overcast.2 mph89%29.77 "Hg4 mi
5:00 AM66 °FOvercast.3 mph90%29.76 "Hg9 mi
4:00 AM66 °FOvercast.2 mph89%29.75 "Hg9 mi
3:00 AM66 °FOvercast.3 mph90%29.75 "Hg9 mi
2:00 AM66 °FOvercast.3 mph91%29.75 "Hg6 mi
1:00 AM67 °FRain. Overcast.3 mph91%29.77 "Hg5 mi
12:00 AM68 °FRain. Overcast.5 mph90%29.76 "Hg5 mi
11:00 PM
Jul 29
67 °FOvercast.3 mph95%29.76 "Hg5 mi
10:00 PM67 °FOvercast.3 mph95%29.75 "Hg6 mi
9:00 PM68 °FLow clouds.3 mph93%29.76 "Hg7 mi
8:00 PM69 °FLow clouds.3 mph90%29.76 "Hg8 mi
7:00 PM69 °FThunderstorms. Overcast.2 mph90%29.75 "Hg9 mi
6:00 PM71 °FThundershowers. Overcast.3 mph85%29.75 "Hg8 mi
5:00 PM77 °FThunderstorms. Overcast.3 mph66%29.74 "Hg8 mi
4:00 PM77 °FPartly sunny.3 mph67%29.74 "Hg12 mi
3:00 PM75 °FPartly sunny.3 mph73%29.77 "Hg9 mi
2:00 PM72 °FOvercast.3 mph79%29.79 "Hg9 mi
1:00 PM71 °FOvercast.2 mph82%29.81 "Hg5 mi
12:00 PM68 °FLight rain. Low clouds.1 mph93%29.83 "Hg3 mi
11:00 AM71 °FSprinkles. Overcast.3 mph83%29.82 "Hg5 mi
Weather by CustomWeather, © 2014

See weather overviewHow to use our weather pages